Location: Newark
(49.9833°N, 3.7472°E)
Time: 20:09:02
(UTC+00:00)

OTV 5 (USA 277) - Visible Passes

Search period start: 14 October 2019 00:00
Search period end: 24 October 2019 00:00
Orbit: 310 x 324 km, 54.5° (Epoch: 08 October)

Date Brightness Start Highest point End Pass type
(mag) Time Alt. Az. Time Alt. Az. Time Alt. Az.
14 Oct ? 03:38:55 19° NE 03:38:55 19° NE 03:40:02 10° ENE visible
14 Oct ? 05:09:48 12° WNW 05:12:13 54° NNE 05:14:56 10° E visible
15 Oct ? 03:53:05 26° NE 03:53:05 26° NE 03:54:50 10° ENE visible
15 Oct ? 05:24:04 10° WNW 05:26:50 81° SSW 05:29:34 10° ESE visible
16 Oct ? 04:07:19 41° NE 04:07:19 41° NE 04:09:39 10° E visible
17 Oct ? 04:21:38 73° NNE 04:21:39 73° NNE 04:24:23 10° ESE visible
18 Oct ? 04:36:01 54° SW 04:36:12 55° SSW 04:38:53 10° SE visible
19 Oct ? 04:50:31 25° SW 04:50:38 25° SW 04:52:58 10° SSE visible
20 Oct ? 05:05:08 12° SW 05:05:08 12° SW 05:06:09 10° SSW visible
